Date_Time,Julian_Date,Latitude,Longitude,Instrument_Depth,U,V,Speed,Direction
(yyyy-mm-dd hh:mn:ss UTC),(JD),(+ deg. North),(+ deg. East),(m),(cm/s),(cm/s),(cm/s),(deg True)
1982-02-01 00:00:00 UTC,2445001.500000,28.7944,-95.3222,0180,11.33,18.86,22.0000,31.0000
1982-02-01 01:00:00 UTC,2445001.541667,28.7944,-95.3222,0180,10.30,17.14,20.0000,31.0000
1982-02-01 02:00:00 UTC,2445001.583333,28.7944,-95.3222,0180,10.07,16.11,19.0000,32.0000
1982-02-01 03:00:00 UTC,2445001.625000,28.7944,-95.3222,0180,9.85,12.61,16.0000,38.0000
1982-02-01 04:00:00 UTC,2445001.666667,28.7944,-95.3222,0180,5.67,9.43,11.0000,31.0000
1982-02-01 05:00:00 UTC,2445001.708333,28.7944,-95.3222,0180,4.36,7.87,9.0000,29.0000
1982-02-01 06:00:00 UTC,2445001.750000,28.7944,-95.3222,0180,3.88,7.00,8.0000,29.0000
1982-02-01 07:00:00 UTC,2445001.791667,28.7944,-95.3222,0180,5.66,6.99,9.0000,39.0000
1982-02-01 08:00:00 UTC,2445001.833333,28.7944,-95.3222,0180,5.90,6.79,9.0000,41.0000
1982-02-01 09:00:00 UTC,2445001.875000,28.7944,-95.3222,0180,5.03,6.22,8.0000,39.0000
1982-02-01 10:00:00 UTC,2445001.916667,28.7944,-95.3222,0180,4.31,5.52,7.0000,38.0000
1982-02-01 11:00:00 UTC,2445001.958333,28.7944,-95.3222,0180,4.41,5.44,7.0000,39.0000
1982-02-01 12:00:00 UTC,2445002.000000,28.7944,-95.3222,0180,3.35,3.72,5.0000,42.0000
1982-02-01 13:00:00 UTC,2445002.041667,28.7944,-95.3222,0180,2.12,3.39,4.0000,32.0000
1982-02-01 14:00:00 UTC,2445002.083333,28.7944,-95.3222,0180,-1.99,-0.21,2.0000,264.0000
1982-02-01 15:00:00 UTC,2445002.125000,28.7944,-95.3222,0180,-1.45,-2.62,3.0000,209.0000
1982-02-01 16:00:00 UTC,2445002.166667,28.7944,-95.3222,0180,-1.79,-4.67,5.0000,201.0000
1982-02-01 17:00:00 UTC,2445002.208333,28.7944,-95.3222,0180,-3.39,-6.12,7.0000,209.0000
1982-02-01 18:00:00 UTC,2445002.250000,28.7944,-95.3222,0180,-2.42,-9.70,10.0000,194.0000
1982-02-01 19:00:00 UTC,2445002.291667,28.7944,-95.3222,0180,-4.10,-11.28,12.0000,200.0000
1982-02-01 20:00:00 UTC,2445002.333333,28.7944,-95.3222,0180,-5.47,-15.04,16.0000,200.0000
1982-02-01 21:00:00 UTC,2445002.375000,28.7944,-95.3222,0180,-5.53,-16.07,17.0000,199.0000
1982-02-01 22:00:00 UTC,2445002.416667,28.7944,-95.3222,0180,-4.94,-15.22,16.0000,198.0000
1982-02-01 23:00:00 UTC,2445002.458333,28.7944,-95.3222,0180,-2.78,-15.76,16.0000,190.0000
1982-02-02 00:00:00 UTC,2445002.500000,28.7944,-95.3222,0180,-3.60,-15.59,16.0000,193.0000
1982-02-02 01:00:00 UTC,2445002.541667,28.7944,-95.3222,0180,-4.69,-16.34,17.0000,196.0000
1982-02-02 02:00:00 UTC,2445002.583333,28.7944,-95.3222,0180,-4.16,-19.56,20.0000,192.0000
1982-02-02 03:00:00 UTC,2445002.625000,28.7944,-95.3222,0180,-3.99,-22.65,23.0000,190.0000
1982-02-02 04:00:00 UTC,2445002.666667,28.7944,-95.3222,0180,-2.44,-19.85,20.0000,187.0000
1982-02-02 05:00:00 UTC,2445002.708333,28.7944,-95.3222,0180,-4.01,-20.61,21.0000,191.0000
1982-02-02 06:00:00 UTC,2445002.750000,28.7944,-95.3222,0180,-10.49,-25.96,28.0000,202.0000
1982-02-02 07:00:00 UTC,2445002.791667,28.7944,-95.3222,0180,-17.33,-25.70,31.0000,214.0000
1982-02-02 08:00:00 UTC,2445002.833333,28.7944,-95.3222,0180,-18.22,-25.08,31.0000,216.0000
1982-02-02 09:00:00 UTC,2445002.875000,28.7944,-95.3222,0180,-19.70,-25.22,32.0000,218.0000
1982-02-02 10:00:00 UTC,2445002.916667,28.7944,-95.3222,0180,-18.05,-23.96,30.0000,217.0000
1982-02-02 11:00:00 UTC,2445002.958333,28.7944,-95.3222,0180,-19.09,-24.43,31.0000,218.0000
1982-02-02 12:00:00 UTC,2445003.000000,28.7944,-95.3222,0180,-13.98,-20.73,25.0000,214.0000
1982-02-02 13:00:00 UTC,2445003.041667,28.7944,-95.3222,0180,-14.78,-17.62,23.0000,220.0000
1982-02-02 14:00:00 UTC,2445003.083333,28.7944,-95.3222,0180,-15.87,-21.84,27.0000,216.0000
1982-02-02 15:00:00 UTC,2445003.125000,28.7944,-95.3222,0180,-14.44,-19.17,24.0000,217.0000
1982-02-02 16:00:00 UTC,2445003.166667,28.7944,-95.3222,0180,-13.84,-18.37,23.0000,217.0000
1982-02-02 17:00:00 UTC,2445003.208333,28.7944,-95.3222,0180,-11.47,-16.38,20.0000,215.0000
1982-02-02 18:00:00 UTC,2445003.250000,28.7944,-95.3222,0180,-20.15,-20.86,29.0000,224.0000
1982-02-02 19:00:00 UTC,2445003.291667,28.7944,-95.3222,0180,-14.12,-12.71,19.0000,228.0000
1982-02-02 20:00:00 UTC,2445003.333333,28.7944,-95.3222,0180,-16.09,-15.00,22.0000,227.0000
1982-02-02 21:00:00 UTC,2445003.375000,28.7944,-95.3222,0180,-11.57,-13.79,18.0000,220.0000
1982-02-02 22:00:00 UTC,2445003.416667,28.7944,-95.3222,0180,-6.18,-19.02,20.0000,198.0000
1982-02-02 23:00:00 UTC,2445003.458333,28.7944,-95.3222,0180,-8.03,-17.22,19.0000,205.0000
1982-02-03 00:00:00 UTC,2445003.500000,28.7944,-95.3222,0180,-10.67,-19.24,22.0000,209.0000
1982-02-03 01:00:00 UTC,2445003.541667,28.7944,-95.3222,0180,-8.03,-17.22,19.0000,205.0000
1982-02-03 02:00:00 UTC,2445003.583333,28.7944,-95.3222,0180,-7.87,-19.47,21.0000,202.0000
1982-02-03 03:00:00 UTC,2445003.625000,28.7944,-95.3222,0180,-6.25,-14.73,16.0000,203.0000
1982-02-03 04:00:00 UTC,2445003.666667,28.7944,-95.3222,0180,-5.62,-13.91,15.0000,202.0000
1982-02-03 05:00:00 UTC,2445003.708333,28.7944,-95.3222,0180,-6.76,-14.50,16.0000,205.0000
1982-02-03 06:00:00 UTC,2445003.750000,28.7944,-95.3222,0180,-7.51,-14.13,16.0000,208.0000
1982-02-03 07:00:00 UTC,2445003.791667,28.7944,-95.3222,0180,-15.75,-18.11,24.0000,221.0000
1982-02-03 08:00:00 UTC,2445003.833333,28.7944,-95.3222,0180,-15.39,-19.70,25.0000,218.0000
1982-02-03 09:00:00 UTC,2445003.875000,28.7944,-95.3222,0180,-15.76,-2.78,16.0000,260.0000
1982-02-03 10:00:00 UTC,2445003.916667,28.7944,-95.3222,0180,-7.83,-1.66,8.0000,258.0000
1982-02-03 11:00:00 UTC,2445003.958333,28.7944,-95.3222,0180,-7.97,0.70,8.0000,275.0000
1982-02-03 12:00:00 UTC,2445004.000000,28.7944,-95.3222,0180,-6.97,0.61,7.0000,275.0000
1982-02-03 13:00:00 UTC,2445004.041667,28.7944,-95.3222,0180,-4.05,2.94,5.0000,306.0000
1982-02-03 14:00:00 UTC,2445004.083333,28.7944,-95.3222,0180,0.00,5.00,5.0000,0.0000
1982-02-03 15:00:00 UTC,2445004.125000,28.7944,-95.3222,0180,-2.46,3.15,4.0000,322.0000
1982-02-03 16:00:00 UTC,2445004.166667,28.7944,-95.3222,0180,0.35,4.99,5.0000,4.0000
1982-02-03 17:00:00 UTC,2445004.208333,28.7944,-95.3222,0180,3.29,6.18,7.0000,28.0000
1982-02-03 18:00:00 UTC,2445004.250000,28.7944,-95.3222,0180,2.83,2.83,4.0000,45.0000
1982-02-03 19:00:00 UTC,2445004.291667,28.7944,-95.3222,0180,2.35,3.24,4.0000,36.0000
1982-02-03 20:00:00 UTC,2445004.333333,28.7944,-95.3222,0180,6.47,6.25,9.0000,46.0000
1982-02-03 21:00:00 UTC,2445004.375000,28.7944,-95.3222,0180,5.94,3.71,7.0000,58.0000
1982-02-03 22:00:00 UTC,2445004.416667,28.7944,-95.3222,0180,5.20,3.00,6.0000,60.0000
1982-02-03 23:00:00 UTC,2445004.458333,28.7944,-95.3222,0180,3.09,5.14,6.0000,31.0000
1982-02-04 00:00:00 UTC,2445004.500000,28.7944,-95.3222,0180,4.50,5.36,7.0000,40.0000
1982-02-04 01:00:00 UTC,2445004.541667,28.7944,-95.3222,0180,5.25,6.04,8.0000,41.0000
1982-02-04 02:00:00 UTC,2445004.583333,28.7944,-95.3222,0180,5.04,4.86,7.0000,46.0000
1982-02-04 03:00:00 UTC,2445004.625000,28.7944,-95.3222,0180,4.73,3.69,6.0000,52.0000
1982-02-04 04:00:00 UTC,2445004.666667,28.7944,-95.3222,0180,3.08,3.94,5.0000,38.0000
1982-02-04 05:00:00 UTC,2445004.708333,28.7944,-95.3222,0180,4.10,2.87,5.0000,55.0000
1982-02-04 06:00:00 UTC,2445004.750000,28.7944,-95.3222,0180,3.78,1.30,4.0000,71.0000
1982-02-04 07:00:00 UTC,2445004.791667,28.7944,-95.3222,0180,2.57,-1.55,3.0000,121.0000
1982-02-04 08:00:00 UTC,2445004.833333,28.7944,-95.3222,0180,0.00,-2.00,2.0000,180.0000
1982-02-04 09:00:00 UTC,2445004.875000,28.7944,-95.3222,0180,1.95,-5.67,6.0000,161.0000
1982-02-04 10:00:00 UTC,2445004.916667,28.7944,-95.3222,0180,-1.22,-6.89,7.0000,190.0000
1982-02-04 11:00:00 UTC,2445004.958333,28.7944,-95.3222,0180,-1.65,-5.77,6.0000,196.0000
1982-02-04 12:00:00 UTC,2445005.000000,28.7944,-95.3222,0180,-0.10,-6.00,6.0000,181.0000
1982-02-04 13:00:00 UTC,2445005.041667,28.7944,-95.3222,0180,0.00,-6.00,6.0000,180.0000
1982-02-04 14:00:00 UTC,2445005.083333,28.7944,-95.3222,0180,-1.55,-5.80,6.0000,195.0000
1982-02-04 15:00:00 UTC,2445005.125000,28.7944,-95.3222,0180,-4.66,-3.78,6.0000,231.0000
1982-02-04 16:00:00 UTC,2445005.166667,28.7944,-95.3222,0180,-5.80,-3.91,7.0000,236.0000
1982-02-04 17:00:00 UTC,2445005.208333,28.7944,-95.3222,0180,-9.78,-2.08,10.0000,258.0000
1982-02-04 18:00:00 UTC,2445005.250000,28.7944,-95.3222,0180,-13.16,-4.79,14.0000,250.0000
1982-02-04 19:00:00 UTC,2445005.291667,28.7944,-95.3222,0180,-12.86,-7.73,15.0000,239.0000
1982-02-04 20:00:00 UTC,2445005.333333,28.7944,-95.3222,0180,-11.49,-9.64,15.0000,230.0000
1982-02-04 21:00:00 UTC,2445005.375000,28.7944,-95.3222,0180,-12.43,-11.59,17.0000,227.0000
1982-02-04 22:00:00 UTC,2445005.416667,28.7944,-95.3222,0180,-14.42,-9.01,17.0000,238.0000
1982-02-04 23:00:00 UTC,2445005.458333,28.7944,-95.3222,0180,-11.89,-10.71,16.0000,228.0000
1982-02-05 00:00:00 UTC,2445005.500000,28.7944,-95.3222,0180,-12.59,-15.54,20.0000,219.0000
1982-02-05 01:00:00 UTC,2445005.541667,28.7944,-95.3222,0180,-16.35,-14.72,22.0000,228.0000
1982-02-05 02:00:00 UTC,2445005.583333,28.7944,-95.3222,0180,-11.38,-12.63,17.0000,222.0000
1982-02-05 03:00:00 UTC,2445005.625000,28.7944,-95.3222,0180,-12.83,-11.15,17.0000,229.0000
1982-02-05 04:00:00 UTC,2445005.666667,28.7944,-95.3222,0180,-12.50,-12.95,18.0000,224.0000
1982-02-05 05:00:00 UTC,2445005.708333,28.7944,-95.3222,0180,-12.73,-12.73,18.0000,225.0000
1982-02-05 06:00:00 UTC,2445005.750000,28.7944,-95.3222,0180,-10.04,-11.15,15.0000,222.0000
1982-02-05 07:00:00 UTC,2445005.791667,28.7944,-95.3222,0180,-12.86,-15.32,20.0000,220.0000
1982-02-05 08:00:00 UTC,2445005.833333,28.7944,-95.3222,0180,-14.77,-11.96,19.0000,231.0000
1982-02-05 09:00:00 UTC,2445005.875000,28.7944,-95.3222,0180,-18.76,-19.42,27.0000,224.0000
1982-02-05 10:00:00 UTC,2445005.916667,28.7944,-95.3222,0180,-13.50,-16.09,21.0000,220.0000
1982-02-05 11:00:00 UTC,2445005.958333,28.7944,-95.3222,0180,-14.59,-15.11,21.0000,224.0000
1982-02-05 12:00:00 UTC,2445006.000000,28.7944,-95.3222,0180,-13.38,-14.86,20.0000,222.0000
1982-02-05 13:00:00 UTC,2445006.041667,28.7944,-95.3222,0180,-13.90,-12.96,19.0000,227.0000
1982-02-05 14:00:00 UTC,2445006.083333,28.7944,-95.3222,0180,-10.06,-6.54,12.0000,237.0000
1982-02-05 15:00:00 UTC,2445006.125000,28.7944,-95.3222,0180,-7.09,-5.54,9.0000,232.0000
1982-02-05 16:00:00 UTC,2445006.166667,28.7944,-95.3222,0180,-7.71,-4.64,9.0000,239.0000
1982-02-05 17:00:00 UTC,2445006.208333,28.7944,-95.3222,0180,-9.23,-5.99,11.0000,237.0000
1982-02-05 18:00:00 UTC,2445006.250000,28.7944,-95.3222,0180,-9.58,-7.22,12.0000,233.0000
1982-02-05 19:00:00 UTC,2445006.291667,28.7944,-95.3222,0180,-10.72,-9.00,14.0000,230.0000
1982-02-05 20:00:00 UTC,2445006.333333,28.7944,-95.3222,0180,-10.61,-10.61,15.0000,225.0000
1982-02-05 21:00:00 UTC,2445006.375000,28.7944,-95.3222,0180,-13.89,-14.39,20.0000,224.0000
1982-02-05 22:00:00 UTC,2445006.416667,28.7944,-95.3222,0180,-13.16,-12.28,18.0000,227.0000
1982-02-05 23:00:00 UTC,2445006.458333,28.7944,-95.3222,0180,-11.66,-9.44,15.0000,231.0000
1982-02-06 00:00:00 UTC,2445006.500000,28.7944,-95.3222,0180,-12.26,-10.28,16.0000,230.0000
1982-02-06 01:00:00 UTC,2445006.541667,28.7944,-95.3222,0180,-12.08,-10.50,16.0000,229.0000
1982-02-06 02:00:00 UTC,2445006.583333,28.7944,-95.3222,0180,-14.05,-15.61,21.0000,222.0000
1982-02-06 03:00:00 UTC,2445006.625000,28.7944,-95.3222,0180,-16.32,-13.22,21.0000,231.0000
1982-02-06 04:00:00 UTC,2445006.666667,28.7944,-95.3222,0180,-13.75,-9.99,17.0000,234.0000
1982-02-06 05:00:00 UTC,2445006.708333,28.7944,-95.3222,0180,-14.26,-7.26,16.0000,243.0000
1982-02-06 06:00:00 UTC,2445006.750000,28.7944,-95.3222,0180,-14.86,-13.38,20.0000,228.0000
1982-02-06 07:00:00 UTC,2445006.791667,28.7944,-95.3222,0180,-14.55,-12.21,19.0000,230.0000
1982-02-06 08:00:00 UTC,2445006.833333,28.7944,-95.3222,0180,-14.34,-12.47,19.0000,229.0000
1982-02-06 09:00:00 UTC,2445006.875000,28.7944,-95.3222,0180,-15.11,-14.59,21.0000,226.0000
1982-02-06 10:00:00 UTC,2445006.916667,28.7944,-95.3222,0180,-13.86,-8.00,16.0000,240.0000
1982-02-06 11:00:00 UTC,2445006.958333,28.7944,-95.3222,0180,-10.70,-13.21,17.0000,219.0000
1982-02-06 12:00:00 UTC,2445007.000000,28.7944,-95.3222,0180,-10.40,-3.58,11.0000,251.0000
1982-02-06 13:00:00 UTC,2445007.041667,28.7944,-95.3222,0180,-11.54,-3.31,12.0000,254.0000
1982-02-06 14:00:00 UTC,2445007.083333,28.7944,-95.3222,0180,-7.76,1.94,8.0000,284.0000
1982-02-06 15:00:00 UTC,2445007.125000,28.7944,-95.3222,0180,-2.58,4.29,5.0000,329.0000
1982-02-06 16:00:00 UTC,2445007.166667,28.7944,-95.3222,0180,-2.57,3.06,4.0000,320.0000
1982-02-06 17:00:00 UTC,2445007.208333,28.7944,-95.3222,0180,0.21,6.00,6.0000,2.0000
1982-02-06 18:00:00 UTC,2445007.250000,28.7944,-95.3222,0180,-0.31,5.99,6.0000,357.0000
1982-02-06 19:00:00 UTC,2445007.291667,28.7944,-95.3222,0180,-7.08,10.90,13.0000,327.0000
1982-02-06 20:00:00 UTC,2445007.333333,28.7944,-95.3222,0180,-1.69,6.79,7.0000,346.0000
1982-02-06 21:00:00 UTC,2445007.375000,28.7944,-95.3222,0180,-4.59,6.55,8.0000,325.0000
1982-02-06 22:00:00 UTC,2445007.416667,28.7944,-95.3222,0180,-5.54,7.09,9.0000,322.0000
1982-02-06 23:00:00 UTC,2445007.458333,28.7944,-95.3222,0180,-4.69,8.83,10.0000,332.0000
1982-02-07 00:00:00 UTC,2445007.500000,28.7944,-95.3222,0180,0.49,6.98,7.0000,4.0000
1982-02-07 01:00:00 UTC,2445007.541667,28.7944,-95.3222,0180,1.95,5.67,6.0000,19.0000
1982-02-07 02:00:00 UTC,2445007.583333,28.7944,-95.3222,0180,1.85,5.71,6.0000,18.0000
1982-02-07 03:00:00 UTC,2445007.625000,28.7944,-95.3222,0180,3.27,5.03,6.0000,33.0000
1982-02-07 04:00:00 UTC,2445007.666667,28.7944,-95.3222,0180,3.09,5.14,6.0000,31.0000
1982-02-07 05:00:00 UTC,2445007.708333,28.7944,-95.3222,0180,3.86,4.60,6.0000,40.0000
1982-02-07 06:00:00 UTC,2445007.750000,28.7944,-95.3222,0180,4.68,5.20,7.0000,42.0000
1982-02-07 07:00:00 UTC,2445007.791667,28.7944,-95.3222,0180,2.68,2.97,4.0000,42.0000
1982-02-07 08:00:00 UTC,2445007.833333,28.7944,-95.3222,0180,0.91,1.78,2.0000,27.0000
1982-02-07 09:00:00 UTC,2445007.875000,28.7944,-95.3222,0180,-0.91,1.78,2.0000,333.0000
1982-02-07 10:00:00 UTC,2445007.916667,28.7944,-95.3222,0180,-1.78,0.91,2.0000,297.0000
1982-02-07 11:00:00 UTC,2445007.958333,28.7944,-95.3222,0180,2.99,0.26,3.0000,85.0000
1982-02-07 12:00:00 UTC,2445008.000000,28.7944,-95.3222,0180,2.88,-0.83,3.0000,106.0000
1982-02-07 13:00:00 UTC,2445008.041667,28.7944,-95.3222,0180,2.43,-1.76,3.0000,126.0000
1982-02-07 14:00:00 UTC,2445008.083333,28.7944,-95.3222,0180,3.68,-1.56,4.0000,113.0000
1982-02-07 15:00:00 UTC,2445008.125000,28.7944,-95.3222,0180,2.78,-1.12,3.0000,112.0000
1982-02-07 16:00:00 UTC,2445008.166667,28.7944,-95.3222,0180,0.28,1.98,2.0000,8.0000
1982-02-07 17:00:00 UTC,2445008.208333,28.7944,-95.3222,0180,2.92,0.67,3.0000,77.0000
1982-02-07 18:00:00 UTC,2445008.250000,28.7944,-95.3222,0180,-0.21,2.99,3.0000,356.0000
1982-02-07 19:00:00 UTC,2445008.291667,28.7944,-95.3222,0180,-1.24,3.80,4.0000,342.0000
1982-02-07 20:00:00 UTC,2445008.333333,28.7944,-95.3222,0180,-1.88,3.53,4.0000,332.0000
1982-02-07 21:00:00 UTC,2445008.375000,28.7944,-95.3222,0180,0.47,2.96,3.0000,9.0000
1982-02-07 22:00:00 UTC,2445008.416667,28.7944,-95.3222,0180,0.21,1.99,2.0000,6.0000
1982-02-07 23:00:00 UTC,2445008.458333,28.7944,-95.3222,0180,-0.62,1.90,2.0000,342.0000
1982-02-08 00:00:00 UTC,2445008.500000,28.7944,-95.3222,0180,-1.00,-0.00,1.0000,270.0000
1982-02-08 01:00:00 UTC,2445008.541667,28.7944,-95.3222,0180,-2.99,0.26,3.0000,275.0000
1982-02-08 02:00:00 UTC,2445008.583333,28.7944,-95.3222,0180,-4.00,-0.00,4.0000,270.0000
1982-02-08 03:00:00 UTC,2445008.625000,28.7944,-95.3222,0180,-1.94,0.48,2.0000,284.0000
1982-02-08 04:00:00 UTC,2445008.666667,28.7944,-95.3222,0180,-1.78,0.91,2.0000,297.0000
1982-02-08 05:00:00 UTC,2445008.708333,28.7944,-95.3222,0180,-1.00,-0.00,1.0000,270.0000
1982-02-08 06:00:00 UTC,2445008.750000,28.7944,-95.3222,0180,-1.66,1.12,2.0000,304.0000
1982-02-08 07:00:00 UTC,2445008.791667,28.7944,-95.3222,0180,-1.66,1.12,2.0000,304.0000
1982-02-08 08:00:00 UTC,2445008.833333,28.7944,-95.3222,0180,-1.51,-1.31,2.0000,229.0000
1982-02-08 09:00:00 UTC,2445008.875000,28.7944,-95.3222,0180,-0.52,-2.95,3.0000,190.0000
1982-02-08 10:00:00 UTC,2445008.916667,28.7944,-95.3222,0180,-0.49,-3.97,4.0000,187.0000
1982-02-08 11:00:00 UTC,2445008.958333,28.7944,-95.3222,0180,-1.65,-5.77,6.0000,196.0000
1982-02-08 12:00:00 UTC,2445009.000000,28.7944,-95.3222,0180,-1.53,-7.85,8.0000,191.0000
1982-02-08 13:00:00 UTC,2445009.041667,28.7944,-95.3222,0180,-4.54,-8.91,10.0000,207.0000
1982-02-08 14:00:00 UTC,2445009.083333,28.7944,-95.3222,0180,-10.71,-11.89,16.0000,222.0000
1982-02-08 15:00:00 UTC,2445009.125000,28.7944,-95.3222,0180,-2.34,-7.65,8.0000,197.0000
1982-02-08 16:00:00 UTC,2445009.166667,28.7944,-95.3222,0180,-1.41,-8.89,9.0000,189.0000
1982-02-08 17:00:00 UTC,2445009.208333,28.7944,-95.3222,0180,-0.84,-7.96,8.0000,186.0000
1982-02-08 18:00:00 UTC,2445009.250000,28.7944,-95.3222,0180,0.85,-6.95,7.0000,173.0000
1982-02-08 19:00:00 UTC,2445009.291667,28.7944,-95.3222,0180,0.94,-5.93,6.0000,171.0000
1982-02-08 20:00:00 UTC,2445009.333333,28.7944,-95.3222,0180,-4.59,-6.55,8.0000,215.0000
1982-02-08 21:00:00 UTC,2445009.375000,28.7944,-95.3222,0180,-11.66,-9.44,15.0000,231.0000
1982-02-08 22:00:00 UTC,2445009.416667,28.7944,-95.3222,0180,-9.06,-7.87,12.0000,229.0000
1982-02-08 23:00:00 UTC,2445009.458333,28.7944,-95.3222,0180,-9.23,-5.99,11.0000,237.0000
1982-02-09 00:00:00 UTC,2445009.500000,28.7944,-95.3222,0180,-9.71,-5.16,11.0000,242.0000
1982-02-09 01:00:00 UTC,2445009.541667,28.7944,-95.3222,0180,-9.21,-3.91,10.0000,247.0000
1982-02-09 02:00:00 UTC,2445009.583333,28.7944,-95.3222,0180,-5.99,-0.42,6.0000,266.0000
1982-02-09 03:00:00 UTC,2445009.625000,28.7944,-95.3222,0180,-7.96,0.84,8.0000,276.0000
1982-02-09 04:00:00 UTC,2445009.666667,28.7944,-95.3222,0180,-6.00,-0.00,6.0000,270.0000
1982-02-09 05:00:00 UTC,2445009.708333,28.7944,-95.3222,0180,-4.81,-1.38,5.0000,254.0000
1982-02-09 06:00:00 UTC,2445009.750000,28.7944,-95.3222,0180,-2.78,-1.12,3.0000,248.0000
1982-02-09 07:00:00 UTC,2445009.791667,28.7944,-95.3222,0180,-1.45,-2.62,3.0000,209.0000
1982-02-09 08:00:00 UTC,2445009.833333,28.7944,-95.3222,0180,1.12,-1.66,2.0000,146.0000
1982-02-09 09:00:00 UTC,2445009.875000,28.7944,-95.3222,0180,1.41,-2.65,3.0000,152.0000
1982-02-09 10:00:00 UTC,2445009.916667,28.7944,-95.3222,0180,1.04,-3.86,4.0000,165.0000
1982-02-09 11:00:00 UTC,2445009.958333,28.7944,-95.3222,0180,-1.25,-5.87,6.0000,192.0000
1982-02-09 12:00:00 UTC,2445010.000000,28.7944,-95.3222,0180,-3.00,-5.20,6.0000,210.0000
1982-02-09 13:00:00 UTC,2445010.041667,28.7944,-95.3222,0180,-3.01,-3.99,5.0000,217.0000
1982-02-09 14:00:00 UTC,2445010.083333,28.7944,-95.3222,0180,-2.23,-2.01,3.0000,228.0000
1982-02-09 15:00:00 UTC,2445010.125000,28.7944,-95.3222,0180,-1.78,0.91,2.0000,297.0000
1982-02-09 16:00:00 UTC,2445010.166667,28.7944,-95.3222,0180,2.01,2.23,3.0000,42.0000
1982-02-09 17:00:00 UTC,2445010.208333,28.7944,-95.3222,0180,4.73,1.63,5.0000,71.0000
1982-02-09 18:00:00 UTC,2445010.250000,28.7944,-95.3222,0180,4.85,1.21,5.0000,76.0000
1982-02-09 19:00:00 UTC,2445010.291667,28.7944,-95.3222,0180,5.82,1.45,6.0000,76.0000
1982-02-09 20:00:00 UTC,2445010.333333,28.7944,-95.3222,0180,3.98,0.35,4.0000,85.0000
1982-02-09 21:00:00 UTC,2445010.375000,28.7944,-95.3222,0180,3.90,0.90,4.0000,77.0000
1982-02-09 22:00:00 UTC,2445010.416667,28.7944,-95.3222,0180,2.95,-0.52,3.0000,100.0000
1982-02-09 23:00:00 UTC,2445010.458333,28.7944,-95.3222,0180,4.78,-1.46,5.0000,107.0000
1982-02-10 00:00:00 UTC,2445010.500000,28.7944,-95.3222,0180,0.00,0.00,0.0000,0.0000
1982-02-10 01:00:00 UTC,2445010.541667,28.7944,-95.3222,0180,0.00,2.00,2.0000,0.0000
1982-02-10 02:00:00 UTC,2445010.583333,28.7944,-95.3222,0180,-1.78,-0.91,2.0000,243.0000
1982-02-10 03:00:00 UTC,2445010.625000,28.7944,-95.3222,0180,-1.70,-1.06,2.0000,238.0000
1982-02-10 04:00:00 UTC,2445010.666667,28.7944,-95.3222,0180,-4.96,-0.61,5.0000,263.0000
1982-02-10 05:00:00 UTC,2445010.708333,28.7944,-95.3222,0180,-10.29,-6.18,12.0000,239.0000
1982-02-10 06:00:00 UTC,2445010.750000,28.7944,-95.3222,0180,-3.99,-3.01,5.0000,233.0000
1982-02-10 07:00:00 UTC,2445010.791667,28.7944,-95.3222,0180,-2.36,-1.85,3.0000,232.0000
1982-02-10 08:00:00 UTC,2445010.833333,28.7944,-95.3222,0180,-6.39,-2.85,7.0000,246.0000
1982-02-10 09:00:00 UTC,2445010.875000,28.7944,-95.3222,0180,-9.80,-4.99,11.0000,243.0000
1982-02-10 10:00:00 UTC,2445010.916667,28.7944,-95.3222,0180,-4.10,-2.87,5.0000,235.0000
1982-02-10 11:00:00 UTC,2445010.958333,28.7944,-95.3222,0180,-4.53,-2.11,5.0000,245.0000
1982-02-10 12:00:00 UTC,2445011.000000,28.7944,-95.3222,0180,-1.68,-2.49,3.0000,214.0000
1982-02-10 13:00:00 UTC,2445011.041667,28.7944,-95.3222,0180,-8.34,-3.37,9.0000,248.0000
1982-02-10 14:00:00 UTC,2445011.083333,28.7944,-95.3222,0180,-7.79,-1.80,8.0000,257.0000
1982-02-10 15:00:00 UTC,2445011.125000,28.7944,-95.3222,0180,-5.60,-2.15,6.0000,249.0000
1982-02-10 16:00:00 UTC,2445011.166667,28.7944,-95.3222,0180,-4.87,-1.12,5.0000,257.0000
1982-02-10 17:00:00 UTC,2445011.208333,28.7944,-95.3222,0180,-2.93,0.62,3.0000,282.0000
1982-02-10 18:00:00 UTC,2445011.250000,28.7944,-95.3222,0180,0.00,1.00,1.0000,0.0000
1982-02-10 19:00:00 UTC,2445011.291667,28.7944,-95.3222,0180,-1.90,0.62,2.0000,288.0000
1982-02-10 20:00:00 UTC,2445011.333333,28.7944,-95.3222,0180,0.00,1.00,1.0000,0.0000
1982-02-10 21:00:00 UTC,2445011.375000,28.7944,-95.3222,0180,-1.78,0.91,2.0000,297.0000
1982-02-10 22:00:00 UTC,2445011.416667,28.7944,-95.3222,0180,0.00,-1.00,1.0000,180.0000
1982-02-10 23:00:00 UTC,2445011.458333,28.7944,-95.3222,0180,0.72,-1.87,2.0000,159.0000
1982-02-11 00:00:00 UTC,2445011.500000,28.7944,-95.3222,0180,-0.21,-2.99,3.0000,184.0000
1982-02-11 01:00:00 UTC,2445011.541667,28.7944,-95.3222,0180,-1.30,-3.78,4.0000,199.0000
1982-02-11 02:00:00 UTC,2445011.583333,28.7944,-95.3222,0180,-4.77,-5.12,7.0000,223.0000
1982-02-11 03:00:00 UTC,2445011.625000,28.7944,-95.3222,0180,-1.56,-3.68,4.0000,203.0000
1982-02-11 04:00:00 UTC,2445011.666667,28.7944,-95.3222,0180,-1.93,-2.30,3.0000,220.0000
1982-02-11 05:00:00 UTC,2445011.708333,28.7944,-95.3222,0180,-11.05,-4.69,12.0000,247.0000
1982-02-11 06:00:00 UTC,2445011.750000,28.7944,-95.3222,0180,-7.13,-3.63,8.0000,243.0000
1982-02-11 07:00:00 UTC,2445011.791667,28.7944,-95.3222,0180,-6.88,-9.83,12.0000,215.0000
1982-02-11 08:00:00 UTC,2445011.833333,28.7944,-95.3222,0180,-7.94,-0.97,8.0000,263.0000
1982-02-11 09:00:00 UTC,2445011.875000,28.7944,-95.3222,0180,-6.69,-2.05,7.0000,253.0000
1982-02-11 10:00:00 UTC,2445011.916667,28.7944,-95.3222,0180,-6.66,-2.16,7.0000,252.0000
1982-02-11 11:00:00 UTC,2445011.958333,28.7944,-95.3222,0180,-7.83,-1.66,8.0000,258.0000
1982-02-11 12:00:00 UTC,2445012.000000,28.7944,-95.3222,0180,0.00,0.00,0.0000,0.0000
1982-02-11 13:00:00 UTC,2445012.041667,28.7944,-95.3222,0180,0.00,0.00,0.0000,0.0000
1982-02-11 14:00:00 UTC,2445012.083333,28.7944,-95.3222,0180,0.00,0.00,0.0000,0.0000
1982-02-11 15:00:00 UTC,2445012.125000,28.7944,-95.3222,0180,0.00,0.00,0.0000,0.0000
1982-02-11 16:00:00 UTC,2445012.166667,28.7944,-95.3222,0180,0.00,0.00,0.0000,0.0000
1982-02-11 17:00:00 UTC,2445012.208333,28.7944,-95.3222,0180,0.00,0.00,0.0000,0.0000
1982-02-11 18:00:00 UTC,2445012.250000,28.7944,-95.3222,0180,0.00,0.00,0.0000,0.0000
1982-02-11 19:00:00 UTC,2445012.291667,28.7944,-95.3222,0180,0.00,0.00,0.0000,0.0000
1982-02-11 20:00:00 UTC,2445012.333333,28.7944,-95.3222,0180,0.00,0.00,0.0000,0.0000
1982-02-11 21:00:00 UTC,2445012.375000,28.7944,-95.3222,0180,0.00,0.00,0.0000,0.0000
1982-02-11 22:00:00 UTC,2445012.416667,28.7944,-95.3222,0180,0.00,0.00,0.0000,0.0000
1982-02-11 23:00:00 UTC,2445012.458333,28.7944,-95.3222,0180,0.00,0.00,0.0000,0.0000
1982-02-12 00:00:00 UTC,2445012.500000,28.7944,-95.3222,0180,0.00,0.00,0.0000,0.0000
1982-02-12 01:00:00 UTC,2445012.541667,28.7944,-95.3222,0180,0.00,0.00,0.0000,0.0000
1982-02-12 02:00:00 UTC,2445012.583333,28.7944,-95.3222,0180,0.00,0.00,0.0000,0.0000
1982-02-12 03:00:00 UTC,2445012.625000,28.7944,-95.3222,0180,0.00,0.00,0.0000,0.0000